Location: Memphis
(29.8667°N, 31.2500°E)
Time: 08:41:58
(UTC+00:00)

Meteor 1-13 Rocket - Pass Details

Date: 03 March 2021
Orbit: 830 x 913 km, 81.3° (Epoch: 15 April)

Event Time Altitude Azimuth Distance (km) Brightness Sun altitude
Rises 17:58:05 0° 352° (N) 3,540 7.6 -27.3°
Reaches altitude 10° 18:00:34 10° 353° (N) 2,589 6.9 -27.8°
Enters shadow 18:06:04 78° 358° (N) 917 4.2 -29.0°
